Wetbulb
38.74 39.02 39.19 40.22 40.99 40.27 40.36 40.18 37.95 33.47 33.71 36.69 37.08 39.96 40.07 39.28 41.04 39.80 39.28 43.86 47.97 49.05 49.25 49.31 50.13 50.67 50.33 50.76 51.11 51.71 51.98 52.59 54.20 54.95 54.49 54.80 55.75 56.04
38.77 38.30 38.01 38.90 39.18 39.28 39.43 40.32 39.87 37.66 34.82 37.65 38.15 39.04 40.21 41.23 41.14 38.87 38.81 44.77 46.78 48.41 48.73 48.65 48.68 49.88 49.84 49.48 50.01 50.47 51.56 52.53 53.37 54.23 54.16 54.86 55.68 56.49
36.93 37.00 37.33 37.68 37.26 37.47 37.89 38.08 37.77 38.02 35.71 37.46 38.35 38.46 37.49 36.84 37.14 37.39 39.41 39.30 40.45 45.81 48.05 48.20 48.26 49.04 48.89 48.79 49.03 49.96 51.13 51.55 52.73 53.35 53.42 54.48 54.27 54.40
36.58 36.13 36.25 38.54 35.95 35.98 35.48 35.53 35.91 36.25 35.88 34.33 35.19 35.58 35.50 35.62 35.82 35.86 39.29 41.86 40.44 44.27 46.92 47.63 48.13 48.08 47.96 47.71 47.63 48.97 50.33 50.70 51.26 51.94 52.58 52.66 52.51 52.45
36.19 35.75 35.83 35.61 34.72 34.77 34.64 34.08 34.43 36.63 34.77 33.59 33.28 34.27 34.50 35.35 35.35 36.48 37.68 38.08 40.87 44.21 46.33 46.60 46.37 46.35 46.33 46.71 47.84 48.87 48.50 48.63 50.01 50.86 50.08 50.12 50.86 51.35
36.43 36.58 36.55 36.25 35.42 34.96 34.96 34.35 34.89 33.54 33.34 32.89 32.76 32.86 33.45 35.00 35.20 35.10 35.21 37.22 37.72 40.96 42.71 43.77 44.13 44.68 44.56 44.64 44.97 45.37 45.23 45.04 46.42 48.39 49.51 49.84 50.12 50.59
35.10 36.39 37.20 38.43 40.61 40.13 37.24 35.10 34.37 33.38 32.90 32.67 32.83 32.60 33.00 32.87 33.16 34.62 34.66 34.67 35.57 37.05 36.53 36.98 38.64 37.30 37.96 41.10 41.13 42.27 43.31 44.13 45.94 47.87 48.45 48.78 49.18 50.18
33.57 34.00 35.32 38.50 39.19 42.77 44.12 45.08 39.32 34.58 33.30 32.23 32.26 31.94 32.56 32.46 33.53 33.41 32.95 32.05 30.82 35.87 34.21 33.96 35.73 36.27 36.20 36.30 40.69 42.18 43.31 43.82 44.83 46.19 47.08 47.47 47.13 47.91
33.60 33.38 33.79 36.68 39.02 37.25 39.50 41.84 42.01 43.53 43.32 35.44 34.25 34.07 33.33 33.97 33.75 32.70 32.42 32.19 32.75 35.83 34.05 34.43 34.48 34.06 35.75 37.53 40.69 42.07 43.56 43.89 44.51 45.08 45.01 45.17 45.54 47.84
34.14 33.72 32.93 33.40 34.58 35.73 35.38 35.13 35.72 36.31 36.96 37.93 36.97 37.81 36.77 37.44 35.99 36.60 34.93 34.23 35.55 36.40 34.73 32.57 33.42 32.71 34.09 34.36 40.10 41.70 42.42 42.87 43.03 44.21 44.12 43.81 44.51 44.39
33.86 33.42 32.90 32.91 36.41 39.21 36.27 35.36 35.00 35.31 38.58 41.00 41.31 41.18 41.72 42.22 42.02 36.69 34.80 34.81 33.11 33.39 35.28 34.02 30.93 30.17 31.81 32.28 33.81 39.35 41.25 41.40 42.82 43.43 43.03 42.20 41.85 42.01
32.84 33.04 37.27 36.31 38.83 39.87 36.75 35.20 33.59 34.29 34.12 34.12 33.72 35.32 37.35 35.90 39.48 36.37 33.54 32.72 32.60 28.23 31.08 29.61 28.00 28.02 27.07 29.45 31.42 34.76 35.99 40.55 42.26 42.53 42.50 42.27 41.81 35.69
31.57 32.42 32.82 37.59 38.91 39.48 39.78 34.80 35.14 36.36 35.44 35.59 33.38 32.41 32.31 32.86 33.35 33.90 33.93 33.61 31.00 31.36 32.36 28.57 23.03 24.64 25.85 26.96 29.19 30.59 31.55 32.12 32.10 33.60 38.06 40.24 40.81 39.12
32.20 32.74 32.83 37.56 38.83 39.45 38.70 38.89 39.10 38.80 34.59 31.68 30.17 30.95 29.94 31.05 31.23 31.83 32.81 32.96 34.20 33.94 33.91 34.41 32.72 32.26 29.71 29.72 29.05 27.31 29.39 31.32 31.45 30.23 31.08 35.14 38.18 38.92
33.70 34.98 37.57 38.13 38.51 38.21 39.01 39.06 38.83 34.11 29.34 27.42 30.07 30.59 30.56 31.75 29.66 27.92 29.35 28.89 28.59 30.50 35.21 34.29 34.25 33.87 33.36 32.10 31.73 31.54 27.22 25.67 29.19 29.04 29.54 28.95 30.08 31.21
32.97 30.38 33.26 35.50 37.05 36.32 35.75 34.54 32.58 30.97 29.24 31.11 31.18 31.04 28.58 25.40 28.77 28.99 27.38 26.47 28.26 30.15 31.03 31.83 31.57 31.94 30.67 31.65 31.78 31.14 32.44 30.35 28.85 28.74 27.83 28.61 28.96 30.25
32.54 30.06 29.10 28.42 28.19 28.69 29.24 29.82 29.64 29.12 29.12 30.18 29.36 29.97 30.03 31.39 31.29 28.69 30.83 31.59 30.23 28.92 28.02 25.85 29.86 30.72 31.80 31.09 29.80 30.60 30.91 31.05 31.31 31.89 30.83 30.30 30.95 29.85
31.96 29.19 30.12 30.27 29.93 30.18 29.63 28.89 28.67 29.77 28.90 29.01 28.97 28.97 29.13 29.60 29.79 30.78 30.33 30.65 29.06 28.16 26.66 23.68 19.20 24.17 29.76 30.97 33.81 30.00 29.97 30.61 31.24 29.48 30.34 29.13 28.78 29.66
30.11 29.87 30.54 30.20 29.96 29.84 29.55 29.32 28.97 28.92 28.71 27.35 28.54 28.85 30.80 30.46 30.34 27.80 25.04 25.07 27.38 27.82 27.58 24.94 16.06 24.29 25.50 23.56 28.07 35.46 30.10 29.86 30.44 29.71 29.32 28.95 28.01 29.45
30.31 30.55 30.13 29.99 29.69 29.21 29.07 28.96 29.46 29.59 27.24 27.57 29.00 30.01 28.17 25.77 25.33 23.13 26.35 26.69 26.68 27.08 26.99 28.03 27.78 28.09 26.93 25.41 25.76 28.30 33.59 29.40 27.43 27.37 28.12 29.31 29.67 32.69
29.85 29.55 29.82 29.73 29.57 29.44 28.87 29.21 27.84 27.02 26.84 26.29 27.04 26.90 27.33 26.18 25.44 25.91 26.14 28.82 28.75 27.76 26.20 26.26 27.90 33.24 31.59 31.65 28.65 28.12 23.43 32.83 31.07 27.66 25.28 26.01 25.26 26.90
29.11 29.00 28.13 27.93 27.64 27.76 27.84 27.21 26.57 26.64 26.71 26.89 26.63 26.47 24.48 25.86 26.83 26.69 26.50 26.42 27.20 27.56 27.91 28.33 28.24 28.67 29.62 28.94 27.66 26.00 15.35 25.26 32.20 33.57 32.50 31.01 23.36 18.37
28.24 28.03 27.87 27.78 27.58 27.09 26.86 26.54 26.17 27.77 28.02 28.33 28.20 26.86 26.86 27.23 27.72 27.73 27.37 27.52 27.74 28.08 28.36 27.93 28.01 29.37 28.62 28.87 28.86 27.02 20.17 25.42 27.94 27.70 29.29 34.72 34.01 33.47
MSLP
1016.70 1016.77 1016.83 1016.61 1016.58 1016.63 1016.76 1017.00 1017.31 1017.67 1017.28 1016.20 1015.85 1015.29 1015.20 1015.04 1015.03 1014.91 1014.80 1014.47 1014.15 1013.93 1013.76 1013.62 1013.47 1013.25 1013.12 1012.95 1012.91 1012.93 1012.84 1012.73 1012.64 1012.54 1012.53 1012.43 1012.27 1012.13
1016.47 1016.58 1016.60 1016.44 1016.37 1016.41 1016.52 1016.66 1016.89 1017.18 1017.34 1016.35 1015.91 1015.43 1015.04 1014.91 1014.79 1014.75 1014.61 1014.33 1014.06 1013.86 1013.62 1013.52 1013.43 1013.25 1013.02 1012.90 1012.76 1012.58 1012.41 1012.28 1012.22 1012.12 1012.10 1012.06 1012.03 1011.88
1016.27 1016.38 1016.35 1016.23 1016.22 1016.26 1016.37 1016.51 1016.68 1016.92 1017.01 1016.22 1015.90 1015.43 1015.18 1014.99 1014.76 1014.58 1014.34 1014.05 1013.82 1013.59 1013.42 1013.29 1013.19 1013.06 1012.93 1012.82 1012.71 1012.48 1012.07 1011.80 1011.74 1011.79 1011.77 1011.62 1011.73 1011.79
1016.16 1016.27 1016.21 1016.04 1016.11 1016.11 1016.21 1016.36 1016.38 1016.35 1016.65 1016.46 1016.00 1015.61 1015.33 1014.92 1014.78 1014.60 1014.19 1013.79 1013.59 1013.19 1012.96 1012.94 1012.87 1012.76 1012.63 1012.55 1012.44 1012.27 1012.06 1011.80 1011.45 1011.35 1011.46 1011.56 1011.65 1011.71
1015.95 1015.99 1015.94 1015.91 1015.97 1015.94 1015.92 1016.03 1016.06 1016.02 1016.18 1016.29 1016.00 1015.65 1015.23 1014.84 1014.58 1014.38 1014.09 1013.81 1013.46 1013.12 1012.85 1012.72 1012.62 1012.47 1012.41 1012.23 1012.08 1011.81 1011.78 1011.71 1011.52 1011.25 1011.26 1011.32 1011.44 1011.52
1015.59 1015.55 1015.51 1015.46 1015.47 1015.49 1015.55 1015.58 1015.53 1015.63 1015.74 1015.86 1015.74 1015.63 1015.40 1014.97 1014.80 1014.60 1014.08 1013.76 1013.43 1012.99 1012.72 1012.57 1012.42 1012.32 1012.26 1012.21 1011.95 1011.70 1011.58 1011.40 1011.28 1011.15 1011.15 1011.14 1011.13 1011.17
1015.30 1015.28 1015.16 1015.02 1014.91 1014.83 1014.87 1014.96 1015.15 1015.25 1015.42 1015.58 1015.55 1015.36 1015.15 1015.09 1015.09 1014.63 1014.38 1013.96 1013.40 1012.83 1012.61 1012.51 1012.42 1012.29 1012.17 1012.02 1011.75 1011.43 1011.21 1011.11 1010.95 1010.78 1010.67 1010.84 1010.97 1011.00
1015.10 1014.92 1014.79 1014.62 1014.48 1014.43 1014.37 1014.32 1014.44 1014.59 1014.91 1015.23 1015.20 1015.14 1014.80 1014.74 1014.63 1014.61 1014.52 1014.36 1014.02 1012.99 1012.98 1012.55 1012.43 1012.10 1011.89 1011.56 1011.32 1011.03 1010.78 1010.64 1010.61 1010.67 1010.54 1010.41 1010.45 1010.56
1014.77 1014.82 1014.55 1014.20 1014.05 1013.95 1013.93 1013.93 1013.90 1013.91 1013.91 1014.32 1014.51 1014.49 1014.42 1014.22 1014.24 1014.14 1014.17 1014.19 1013.87 1013.14 1013.12 1012.21 1012.04 1011.78 1011.25 1010.96 1010.68 1010.44 1010.28 1010.34 1010.25 1010.20 1010.34 1010.34 1010.18 1009.82
1014.21 1014.15 1014.12 1013.76 1013.61 1013.60 1013.51 1013.53 1013.41 1013.35 1013.27 1013.50 1013.63 1013.50 1013.55 1013.39 1013.52 1013.44 1013.51 1013.51 1013.20 1012.85 1013.06 1012.34 1011.59 1011.23 1010.84 1010.55 1010.09 1009.89 1009.76 1009.69 1009.85 1009.96 1010.01 1010.00 1009.94 1010.02
1013.47 1013.37 1013.31 1013.17 1012.86 1012.81 1012.86 1012.88 1012.77 1012.61 1012.56 1012.62 1012.67 1012.79 1012.69 1012.63 1012.54 1012.84 1013.02 1013.04 1012.62 1012.33 1012.32 1012.42 1011.76 1011.28 1010.74 1010.13 1009.88 1009.61 1009.31 1009.22 1009.36 1009.62 1009.88 1009.96 1009.94 1010.02
1013.10 1012.92 1012.89 1012.75 1012.61 1012.41 1012.34 1012.42 1012.34 1011.94 1012.12 1012.14 1012.23 1012.22 1012.35 1012.39 1012.16 1012.25 1012.38 1012.47 1012.41 1012.04 1011.49 1011.95 1011.66 1011.77 1011.20 1010.30 1009.98 1009.78 1009.64 1009.52 1009.47 1009.50 1009.68 1009.84 1009.87 1010.06
1012.47 1012.31 1012.10 1011.93 1011.79 1011.70 1011.65 1011.80 1011.76 1011.68 1011.74 1011.70 1011.72 1011.74 1011.85 1011.88 1011.82 1011.74 1011.64 1011.71 1011.64 1011.31 1011.07 1011.20 1011.22 1011.32 1011.40 1010.81 1009.97 1009.64 1009.67 1009.65 1009.70 1009.71 1009.62 1009.68 1009.66 1009.70
1011.65 1011.50 1011.36 1011.35 1011.26 1011.25 1011.23 1011.01 1010.87 1010.90 1011.00 1011.38 1011.51 1011.43 1011.34 1011.19 1010.95 1010.87 1010.75 1010.61 1010.43 1010.20 1010.23 1010.36 1010.41 1010.62 1010.67 1010.39 1010.00 1009.60 1009.28 1009.15 1009.10 1009.19 1009.28 1009.34 1009.35 1009.37
1010.68 1010.68 1010.71 1010.72 1010.67 1010.59 1010.65 1010.60 1010.58 1010.55 1010.72 1010.87 1010.83 1010.63 1010.56 1010.22 1010.08 1010.12 1010.03 1009.99 1009.88 1009.53 1009.26 1009.41 1009.62 1009.71 1009.92 1009.70 1009.35 1009.12 1009.12 1008.94 1008.67 1008.85 1008.80 1008.97 1009.10 1009.06
1010.22 1010.12 1010.11 1010.08 1010.02 1009.96 1009.88 1009.89 1009.98 1010.08 1010.26 1010.12 1010.02 1009.76 1009.60 1009.72 1009.66 1009.53 1009.68 1009.45 1009.44 1008.81 1008.37 1008.22 1008.37 1008.83 1008.98 1008.92 1008.81 1008.35 1008.45 1008.49 1008.22 1008.27 1008.34 1008.27 1008.38 1008.38
1009.76 1009.80 1009.79 1009.71 1009.56 1009.63 1009.69 1009.55 1009.55 1009.52 1009.52 1009.43 1009.47 1009.31 1009.21 1009.16 1008.91 1008.80 1008.82 1008.65 1008.62 1008.26 1007.90 1007.70 1007.61 1007.74 1007.75 1007.81 1007.80 1007.57 1007.25 1007.11 1007.04 1007.06 1007.43 1007.20 1007.23 1007.47
1008.75 1009.00 1008.96 1008.88 1008.78 1008.77 1008.86 1008.86 1009.08 1009.05 1008.88 1008.74 1008.74 1008.60 1008.47 1008.34 1008.07 1007.97 1008.00 1007.89 1007.75 1007.41 1007.22 1006.94 1007.21 1007.44 1007.10 1006.75 1006.67 1006.34 1006.26 1006.08 1006.15 1006.44 1006.49 1006.38 1006.08 1006.11
1007.98 1008.13 1008.15 1008.10 1008.12 1008.29 1008.33 1008.23 1008.02 1008.21 1008.09 1007.99 1007.85 1007.60 1007.50 1007.32 1007.32 1007.22 1007.08 1007.07 1006.75 1006.39 1006.09 1006.19 1006.25 1006.62 1006.17 1005.35 1004.58 1004.73 1005.03 1005.02 1005.09 1005.27 1005.59 1005.51 1005.28 1005.13
1007.18 1007.21 1007.38 1007.52 1007.51 1007.61 1007.69 1007.55 1007.30 1007.26 1007.17 1007.03 1006.87 1006.65 1006.55 1006.59 1006.45 1006.40 1006.16 1006.00 1005.73 1005.39 1005.19 1005.16 1005.18 1005.08 1004.90 1004.34 1004.02 1003.63 1003.75 1004.00 1004.32 1004.39 1004.47 1004.46 1004.43 1004.48
1006.70 1006.66 1006.74 1006.80 1006.86 1006.79 1006.65 1006.49 1006.43 1006.34 1006.21 1006.03 1005.83 1005.72 1005.65 1005.67 1005.41 1005.26 1005.01 1004.65 1004.47 1004.31 1004.00 1003.75 1003.50 1003.42 1003.48 1003.45 1003.19 1002.77 1002.79 1002.65 1002.96 1003.32 1003.55 1003.87 1003.90 1003.90
1005.91 1005.94 1006.05 1005.97 1005.99 1005.94 1005.79 1005.67 1005.48 1005.32 1005.13 1004.94 1004.74 1004.67 1004.61 1004.63 1004.42 1004.17 1003.99 1003.76 1003.49 1003.25 1002.87 1002.63 1002.55 1002.74 1002.69 1002.54 1002.18 1002.19 1002.52 1002.00 1001.95 1002.29 1002.55 1002.76 1003.09 1003.00
1005.10 1005.21 1005.11 1005.10 1005.07 1005.00 1004.88 1004.72 1004.53 1004.26 1004.07 1003.87 1003.73 1003.71 1003.67 1003.42 1003.15 1002.97 1002.83 1002.65 1002.42 1002.14 1001.90 1001.73 1001.77 1001.79 1001.52 1001.40 1001.36 1001.39 1001.58 1001.59 1001.66 1001.76 1001.80 1001.71 1002.02 1002.27
Wind_Speed
4 4 3 3 2 2 2 3 3 1 3 3 2 1 2 2 4 4 5 10 12 8 9 9 8 8 8 10 10 11 12 14 14 12 14 14 14 14
3 4 3 2 3 2 2 2 3 4 3 3 3 3 4 4 5 5 6 10 10 11 12 8 11 11 8 8 11 12 15 14 13 13 13 14 14 11
3 4 5 4 3 3 2 2 2 3 4 4 3 2 3 4 6 4 5 5 5 12 12 11 12 11 10 11 14 14 14 13 12 12 13 12 11 12
5 4 6 3 4 3 2 4 3 3 4 6 2 2 4 3 4 5 5 4 4 7 11 11 10 10 13 13 14 15 12 11 11 11 9 9 10 11
4 4 6 4 5 3 3 4 3 3 3 3 4 2 3 2 3 3 4 5 3 9 9 8 11 13 13 12 11 8 8 10 11 6 8 9 11 12
4 5 6 5 6 6 5 5 4 3 3 3 3 3 4 4 2 4 4 1 3 3 6 8 8 6 5 10 13 12 10 11 12 12 11 11 10 13
5 5 5 6 9 9 4 5 4 3 3 3 5 3 4 2 3 2 4 4 4 4 2 2 2 2 4 9 9 12 13 13 12 9 9 10 10 13
5 5 5 7 8 11 11 10 8 5 4 3 3 4 5 3 2 3 3 3 4 1 2 3 2 5 4 4 12 14 13 13 13 12 11 11 10 13
5 5 5 4 6 5 8 10 10 10 12 5 6 6 4 5 3 3 3 4 5 6 3 9 2 6 4 6 12 12 11 10 10 10 10 11 12 10
6 6 6 7 6 6 5 6 6 6 6 5 6 8 6 6 6 5 5 5 4 5 2 8 2 4 4 5 14 14 14 14 13 11 9 6 3 3
6 6 6 7 11 12 6 7 7 7 7 13 14 15 16 16 12 4 5 6 10 6 4 4 3 4 3 4 4 7 7 8 7 7 6 5 5 6
6 7 13 10 14 14 6 6 7 9 5 5 4 7 9 8 13 7 3 6 6 5 4 4 2 1 5 2 2 3 3 5 5 7 9 9 9 2
5 6 4 13 14 14 14 5 8 7 9 7 5 4 4 5 5 6 6 7 6 9 4 3 3 1 3 4 3 2 3 2 2 4 9 12 13 9
6 6 7 14 16 16 14 14 16 14 4 4 4 6 5 5 5 6 8 7 7 11 6 6 4 4 4 7 7 2 3 4 4 3 3 7 13 14
4 8 13 14 16 14 15 17 17 6 3 3 6 7 6 7 5 3 5 6 7 7 8 8 8 6 6 9 9 7 4 3 4 3 3 4 5 4
8 7 7 10 13 13 12 8 4 4 4 8 8 7 3 2 5 5 5 4 5 6 8 10 9 8 7 8 10 11 8 6 3 4 4 3 4 5
8 4 3 3 4 4 5 6 5 4 6 6 6 7 7 7 9 4 6 5 6 7 7 3 6 9 9 10 10 11 10 9 8 9 7 9 8 7
6 5 7 8 9 9 8 7 6 8 6 7 7 7 8 8 7 5 6 6 8 9 8 4 3 2 5 11 19 12 10 10 8 6 6 9 10 7
5 5 7 7 7 7 6 7 8 7 7 7 8 7 7 5 7 7 6 6 9 10 9 5 3 6 10 12 8 24 13 9 8 8 8 9 10 11
5 6 6 6 7 8 8 8 8 6 5 6 7 8 7 7 7 6 7 9 10 10 10 9 8 9 10 12 10 8 21 10 7 8 8 8 9 16
4 4 5 7 8 8 8 8 8 8 8 7 8 7 7 7 9 8 9 17 16 9 12 12 10 19 9 8 9 11 4 21 15 9 5 6 7 6
5 6 6 7 7 8 8 8 8 9 9 9 9 8 6 7 9 11 9 11 10 9 10 8 6 5 7 10 11 10 3 3 11 23 19 14 4 4
5 7 8 8 8 8 8 8 9 10 11 10 9 8 9 9 9 10 10 10 10 10 9 9 7 7 9 9 12 8 4 5 5 6 5 16 19 15
Wind_Direction
248 253 247 257 232 218 198 181 169 284 290 302 296 229 357 24 330 334 321 304 306 293 307 303 314 310 309 306 292 292 289 284 288 289 281 280 280 279
246 251 261 262 268 249 225 214 190 192 232 219 273 295 338 329 314 331 310 310 304 301 303 303 302 303 296 313 311 306 292 276 270 274 277 278 282 296
270 248 261 252 257 259 244 235 226 186 239 286 248 285 292 302 309 303 285 279 273 282 284 295 310 305 311 310 305 302 295 282 279 266 271 277 290 296
276 283 279 286 279 271 255 250 233 218 198 269 279 281 241 274 278 300 301 294 284 279 279 282 289 298 300 303 298 297 302 311 287 266 267 267 273 278
261 261 265 273 274 264 249 245 236 257 241 234 270 268 286 295 304 284 285 286 272 273 271 279 291 294 296 298 309 324 321 320 316 270 253 257 260 260
259 255 258 251 245 252 248 246 241 240 248 267 272 260 246 280 295 298 307 295 299 283 272 272 275 278 303 306 307 299 292 290 289 280 273 261 251 244
276 277 267 260 255 245 230 240 227 230 233 254 277 282 274 270 254 285 295 303 286 244 274 275 249 267 288 295 288 283 281 281 265 261 261 266 270 257
277 282 278 280 276 277 274 255 222 216 226 200 235 254 270 245 227 268 286 328 316 333 354 288 251 267 254 254 277 288 277 275 268 267 263 255 269 286
261 273 283 262 274 277 284 284 284 272 239 192 238 234 255 214 220 249 236 241 256 287 310 286 206 269 256 265 277 279 271 274 271 256 264 277 270 260
235 244 251 267 252 259 253 256 250 246 248 249 227 257 230 253 217 246 243 245 254 267 212 282 293 269 282 266 277 277 271 269 269 261 259 273 284 242
245 243 236 257 267 267 248 250 257 253 244 244 245 252 267 272 263 219 245 259 278 267 187 261 291 298 263 287 306 303 295 268 256 256 249 254 259 255
269 254 260 255 268 276 263 240 257 263 249 250 247 258 263 264 274 257 232 260 261 297 251 183 211 208 325 283 313 349 5 347 312 270 262 263 262 249
243 272 258 261 263 264 264 240 246 269 261 258 250 242 235 243 244 244 231 229 236 243 224 161 195 205 221 279 248 241 201 249 257 286 294 283 270 259
237 241 243 258 266 267 268 259 267 275 254 227 245 257 249 252 243 231 236 237 234 243 236 216 241 220 233 262 271 293 259 249 210 220 224 256 258 262
225 241 258 263 266 272 277 281 280 268 231 224 249 253 242 245 246 248 251 245 248 247 233 215 229 241 234 262 274 270 278 267 232 235 225 229 240 220
280 281 260 254 256 264 273 271 243 235 233 257 261 260 239 224 248 225 243 237 245 264 231 223 213 210 243 249 262 267 254 250 204 221 219 232 242 237
262 256 264 245 255 260 258 254 252 245 250 257 254 259 259 260 262 231 240 241 242 258 262 236 221 212 218 233 255 259 256 250 246 247 224 255 249 246
265 243 252 264 273 277 275 274 258 251 239 238 240 243 250 253 248 232 224 238 255 256 246 230 186 219 237 245 229 254 251 249 246 247 241 247 252 238
247 242 252 264 269 271 269 275 277 263 235 232 241 243 244 233 260 259 243 234 254 260 251 236 180 217 255 261 259 212 239 243 242 239 229 236 250 258
229 243 252 256 259 258 260 263 264 257 242 241 251 253 243 240 253 240 244 262 264 262 260 247 236 243 242 255 264 255 210 230 215 230 233 241 248 258
239 241 244 248 253 257 261 259 253 255 257 256 250 248 243 238 245 245 250 259 256 248 252 249 241 243 246 258 250 253 237 224 213 212 204 226 236 227
244 253 253 251 251 251 252 252 258 259 256 254 253 254 230 226 248 258 253 256 254 252 257 261 247 232 244 248 254 255 236 225 225 227 225 219 173 208
238 247 255 252 252 251 248 249 249 260 263 260 254 245 248 249 243 242 246 247 249 252 245 252 244 241 241 240 244 244 191 206 209 209 231 228 224 232